This is the latest recevied weather packets stored in our database for station/object W2OBX. If no packets are shown the sender has not sent any weather packets the latest 10 day(s).
| Time | Temp. | Humidity | Pressure | Rain* | Wind** | Luminosity | Snow |
|---|---|---|---|---|---|---|---|
| 1777932837 | 24.44° C | 43% | 1013 hPa | 0 mm | - | 23 W/m² | - |
| 1777932534 | 24.44° C | 42% | 1012.6 hPa | 0 mm | - | 23 W/m² | - |
| 1777932230 | 24.44° C | 41% | 1012.7 hPa | 0 mm | - | 23 W/m² | - |
| 1777931928 | 24.44° C | 40% | 1012.7 hPa | 0 mm | - | 25 W/m² | - |
| 1777931624 | 24.44° C | 39% | 1012.9 hPa | 0 mm | - | 25 W/m² | - |
| 1777931320 | 25° C | 42% | 1012.7 hPa | 0 mm | - | 25 W/m² | - |
| 1777931017 | 25° C | 39% | 1012.9 hPa | 0 mm | - | 25 W/m² | - |
| 1777930714 | 25° C | 40% | 1012.7 hPa | 0 mm | - | 26 W/m² | - |
| 1777930410 | 25° C | 41% | 1012.9 hPa | 0 mm | - | 27 W/m² | - |
| 1777930107 | 25° C | 41% | 1012.7 hPa | 0 mm | - | 28 W/m² | - |
| 1777929803 | 25° C | 42% | 1013 hPa | 0 mm | - | 27 W/m² | - |
| 1777929502 | 25.56° C | 37% | 1012.6 hPa | 0 mm | - | 28 W/m² | - |
| 1777929197 | 25.56° C | 39% | 1012.7 hPa | 0 mm | - | 33 W/m² | - |
| 1777928895 | 25.56° C | 39% | 1012.9 hPa | 0 mm | - | 147 W/m² | - |
| 1777928592 | 25.56° C | 39% | 1013 hPa | 0 mm | - | 47 W/m² | - |
| 1777928289 | 26.11° C | 40% | 1013.1 hPa | 0 mm | - | 306 W/m² | - |
| 1777927987 | 25.56° C | 39% | 1013.1 hPa | 0 mm | - | 516 W/m² | - |
| 1777927685 | 25.56° C | 44% | 1013.2 hPa | 0 mm | - | 77 W/m² | - |
| 1777927383 | 25.56° C | 39% | 1013.2 hPa | 0 mm | - | 168 W/m² | - |
| 1777927082 | 25.56° C | 38% | 1013.1 hPa | 0 mm | - | 439 W/m² | - |
| 1777926779 | 25.56° C | 40% | 1013.2 hPa | 0 mm | - | 519 W/m² | - |
| 1777926479 | 25.56° C | 43% | 1013.3 hPa | 0 mm | - | 41 W/m² | - |
| 1777926176 | 25.56° C | 42% | 1013.3 hPa | 0 mm | - | 44 W/m² | - |
| 1777925873 | 25° C | 42% | 1013.6 hPa | 0 mm | - | 61 W/m² | - |
| 1777925570 | 25° C | 46% | 1013.4 hPa | 0 mm | - | 39 W/m² | - |
* Rain latest hour (hover to see other rain measurements)
** Current wind speed in m/s (hover to see current wind gust speed)